Regional Weather Roundup
Issued by NWS

Home | Current Version | Previous Version | Text Only | Print | Product List | Glossary Off
Versions: 1 2 3 4 5 6 7 8 9 10 11 12 13 14 15 16 17 18 19 20 21 22 23 24 25 26 27 28 29 30 31 32 33 34 35 36 37 38 39 40 41 42 43 44 45 46 47 48 49 50

690
ASUS45 KBOU 220907
RWRCO

WEATHER ROUNDUP FOR COLORADO
NATIONAL WEATHER SERVICE DENVER/BOULDER CO
200 AM MST WED FEB 22 2017

NOTE: "FAIR" INDICATES FEW OR NO CLOUDS BELOW 12000 FEET WITH NO
SIGNIFICANT WEATHER AND/OR OBSTRUCTIONS TO VISIBILITY.

COZ001>005-013-030-031-221000-
...NORTHWEST COLORADO...

CITY           SKY/WX    TMP DP  RH WIND       PRES   REMARKS
CRAIG          CLOUDY    33  26  75 W6        30.01S WCI  28
HAYDEN         FAIR      30  23  74 SW9       29.99R WCI  22
MEEKER         FAIR      45  30  55 SW14      29.98F
MOUNT WERNER   NOT AVBL
STEAMBOAT SPGS MOCLDY    34  28  79 SW10      29.97R WCI  26
WALDEN         NOT AVBL
$$

COZ006>008-011-221000-
...WEST CENTRAL VALLEYS...

CITY           SKY/WX    TMP DP  RH WIND       PRES   REMARKS
GRAND JUNCTION FAIR      46  35  65 SE9       29.97F
MONTROSE       FAIR      52  27  38 SW13G21   30.05R
EAGLE          FAIR      43  24  47 W14       29.98F
RIFLE          FAIR      47  32  56 W13       29.96F
DELTA          FAIR      51  33  49 W3        30.03F
NUCLA          FAIR      50  32  50 S7        30.11S
$$

COZ017>023-064>068-221000-
...SOUTHWEST COLORADO...

CITY           SKY/WX    TMP DP  RH WIND       PRES   REMARKS
DURANGO        MOCLDY    41  33  73 E6        30.17F
CORTEZ         FAIR      40  36  86 E9        30.14F
PAGOSA SPRINGS MOCLDY    38  32  80 N6        30.21F
TELLURIDE      FAIR      41   8  25 W12       30.19F
WOLF CREEK PAS HVY SNOW  23  23 100 SW26G40   30.27F VSB 1/4 WCI   6
$$

COZ009-010-012-014-032>034-037-058>063-221000-
...CENTRAL COLORADO...

CITY           SKY/WX    TMP DP  RH WIND       PRES   REMARKS
ASPEN          MOCLDY    39  22  50 SW5       30.01S
BUENA VISTA    FAIR      44  12  27 W13       30.05S
COPPER MTN     LGT SNOW  30  12  47 W26G38    30.08F WCI  16
BERTHOUD PASS  CLOUDY    21  12  68 W35G54    30.03F WCI   2
COTTONWOOD PAS FAIR      39   9  28 S14       30.08F
GUNNISON       FAIR      24  21  88 E5        30.09F WCI  18
KREMMLING      FAIR      45  23  42 W8G20     29.98S
LEADVILLE      CLOUDY    34  13  41 W14G25    30.05F WCI  25
MONARCH PASS   FAIR      25  19  80 SW40G48   30.23F WCI   6
SALIDA         FAIR      43  25  48 SW7       30.13S
SUNLIGHT       NOT AVBL
WILKERSON PASS FAIR      28  16  59 SW14G25   30.11F WCI  17
$$

COZ069>075-221000-
...SAN LUIS VALLEY/SANGRE DE CRISTO MOUNTAINS...

CITY           SKY/WX    TMP DP  RH WIND       PRES   REMARKS
ALAMOSA        FAIR      40  29  64 S8        30.13F
LA VETA PASS   CLOUDY    34  23  64 N18G28    30.21S WCI  23
SAGUACHE       FAIR      45  21  39 W18G28    30.09F
$$

COZ035-036-038>040-221000-
...NORTHERN COLORADO FRONT RANGE...

CITY           SKY/WX    TMP DP  RH WIND       PRES   REMARKS
DENVER INTL AP FAIR      50  15  24 SW17      29.86F
DMNS CITY PARK   N/A     51  14  23 SE8       29.86F
AURORA         MOCLDY    49  15  25 SW14      29.89F
FRONT RANGE AP FAIR      54  18  24 SW18      29.87F
ERIE MUNI ARPT FAIR      41  15  34 SW3       29.86F
BOULDER MUN AP FAIR      46  18  31 SW5       29.86F
CENTENNIAL     FAIR      51  15  23 SW18G24   29.89F
BROOMFIELD     FAIR      46  18  31 W8        29.88F
FORT COLLINS   FAIR      54  19  25 W12       29.84F
LONGMONT       FAIR      59  16  18 SW10G23   29.87F
$$

COZ041-046-047-076>085-087-088-221000-
...PIKES PEAK/PALMER DIVIDE AND SOUTHERN FOOTHILLS...

CITY           SKY/WX    TMP DP  RH WIND       PRES   REMARKS
COLO. SPRINGS  FAIR      52  21  29 W13       29.98F
A. F. ACADEMY  FAIR      49  16  26 SW8       29.97S
SCHRIEVER AFB  FAIR      51  20  29 W29G38    29.95F
ELLICOTT       FAIR       1 N/A N/A NW12      29.94F WCI -16
FALCON         FAIR      44  17  33 W12       29.99F
FORT CARSON    FAIR      51  22  31 SW22      29.95F
LIMON          FAIR      53  14  21 W14       29.87F
MONUMENT HILL  FAIR      46  14  27 W22G32    29.98R
TRINIDAD       FAIR      52  18  26 SW16      29.98S
$$

COZ042>045-048>051-090-091-221000-
...NORTHEAST COLORADO...

CITY           SKY/WX    TMP DP  RH WIND       PRES   REMARKS
GREELEY ARPT   FAIR      51  18  27 NW13      29.84S
AKRON          FAIR      45  14  28 W12       29.81S
BURLINGTON     FAIR      49  15  25 SW13      29.85F
WRAY           NOT AVBL
STERLING       FAIR      39  18  41 S6        29.78S
HOLYOKE        FAIR      41  19  42 W6        29.80R
FORT MORGAN    FAIR      43  15  31 W9        29.81S
$$

COZ086-089-092>099-221000-
...SOUTHEAST COLORADO...

CITY           SKY/WX    TMP DP  RH WIND       PRES   REMARKS
PUEBLO         FAIR      51  23  33 CALM      29.90F
LA JUNTA       FAIR      49  21  33 W14       29.90F
LAMAR          FAIR      48  16  27 CALM      29.87R
SPRINGFIELD      N/A     50  13  22 SW13      29.90F
$$




USA.gov is the U.S. government's official web portal to all federal, state and local government web resources and services.